Simultaneous Nadir Overpasses (SNOs) Predictions

Prediction of SNOs between FY3D and AQUA Satellite Orbit:

Table of predicted SNOs for the next 14.0 days since TLE Epoch: 6/5/2021
Index Date (FY3D) Time (FY3D) Lat,Lon (FY3D) SZA (FY3D ) Date (AQUA) Time (AQUA) Lat,Lon (AQUA) SZA (AQUA ) Distance(km) Time Diff (sec)
1 06/07/2021 09:25:06 -53.29,-128.80 148.15 06/07/2021 09:26:10 -53.29,-128.78 148.09 1.33 64
2 06/07/2021 10:13:58 46.65, 41.51 26.71 06/07/2021 10:13:47 46.68, 41.66 26.76 11.59 11
3 06/10/2021 01:42:02 -55.45, -14.02 146.59 06/10/2021 01:43:15 -55.44, -13.98 146.53 2.25 73
4 06/10/2021 02:30:06 46.08, 157.68 26.05 06/10/2021 02:30:05 46.07, 157.77 26.07 6.48 1
5 06/12/2021 18:04:39 -75.71, 76.12 127.17 06/12/2021 18:05:53 -75.97, 77.34 127.00 44.14 74
6 06/12/2021 18:46:30 46.38, -86.50 26.05 06/12/2021 18:46:39 46.37, -86.47 26.07 2.31 9
7 06/12/2021 19:38:13 -49.93, 79.33 151.30 06/12/2021 19:37:05 -50.03, 79.73 151.18 30.66 68
8 06/15/2021 10:27:43 -74.87, 82.16 104.94 06/15/2021 10:28:56 -75.30, 79.77 104.76 83.53 73
9 06/15/2021 11:03:27 48.58, 28.53 27.51 06/15/2021 11:03:45 48.57, 28.56 27.54 1.81 18
10 06/15/2021 11:54:22 -49.36,-164.48 151.90 06/15/2021 11:53:24 -49.44,-164.15 151.80 25.61 58
11 06/18/2021 03:20:21 50.60, 143.58 28.97 06/18/2021 03:20:48 50.60, 143.59 29.00 1.46 27



Historial Predications of SNOs between FY3D and AQUA
